RH
60 61 65 64 64 62 62 63 63 60 62 68 72 68 74 77 75 82 81 66 61 61 80 78 74 69 72 90 67 48 56 53 34 30 24 22 40 53 66 70 76 81 77 64 81
59 61 64 64 63 64 61 60 57 57 58 60 72 79 78 81 83 89 65 64 64 75 82 86 86 70 85 88 84 63 66 44 33 24 22 20 28 55 72 77 83 80 68 76 84
59 59 65 60 62 58 65 57 60 59 60 60 69 73 82 88 83 80 69 84 71 85 83 82 80 73 78 82 82 58 54 39 25 23 19 21 37 57 64 79 72 83 78 87 86
63 56 58 60 61 63 59 64 62 60 62 61 70 82 84 77 100 88 75 63 73 76 85 85 92 81 78 85 68 57 44 33 30 26 22 23 39 65 47 57 59 65 69 83 90
56 59 62 62 62 62 63 61 61 62 64 68 72 78 84 90 80 75 71 63 72 80 87 85 94 74 77 76 68 51 46 39 37 28 24 28 48 59 75 70 65 62 67 81 88
59 59 63 64 64 62 65 66 65 63 64 65 69 73 84 95 74 77 76 73 77 86 89 86 86 64 63 74 73 54 44 38 33 26 28 30 50 56 86 73 75 70 71 76 86
62 63 66 66 65 65 66 68 66 61 62 63 65 67 80 79 72 80 78 79 77 83 83 84 85 67 59 74 49 44 44 38 36 30 28 41 54 64 82 79 83 75 73 73 80
63 64 67 68 67 67 68 66 61 59 57 63 67 74 80 72 82 77 74 79 78 83 82 86 83 69 58 54 39 42 40 45 35 35 36 42 61 85 83 86 92 86 77 70 74
64 65 68 70 68 69 67 61 60 53 53 57 78 77 71 79 87 79 70 84 79 80 88 82 80 80 50 63 48 52 46 44 35 37 43 40 58 95 86 85 86 90 81 72 63
65 67 70 71 70 69 65 60 56 55 50 55 55 73 57 61 51 71 81 79 85 87 90 98 96 72 56 58 58 55 47 40 40 40 46 44 58 96 92 87 85 91 82 73 65
67 69 71 69 66 66 68 69 71 61 76 79 61 69 60 50 49 74 78 86 81 85 98 91 88 78 62 49 36 36 38 35 40 42 42 44 78 95 94 93 88 92 86 70 63
70 72 69 62 58 60 73 78 83 78 87 68 60 56 41 53 89 77 78 94 95 96 88 82 87 59 46 37 34 34 36 42 41 40 38 54 52 76 92 94 90 93 89 79 63
71 71 66 64 59 70 71 73 69 77 88 58 50 56 49 58 91 92 82 92 100 95 86 85 71 42 36 38 34 38 32 42 42 38 42 45 48 64 64 85 91 87 83 75 69
70 70 63 62 59 75 79 67 69 79 87 60 56 55 64 66 91 77 84 91 97 92 61 60 48 36 37 40 29 35 31 40 42 39 45 39 44 53 64 71 93 95 93 84 75
68 69 63 58 64 72 64 69 68 78 92 56 58 46 62 93 91 90 89 88 98 72 59 78 47 45 46 46 29 32 38 43 42 42 46 46 44 39 66 71 86 94 92 90 82
68 69 56 55 68 58 67 76 74 80 95 82 64 72 83 76 94 86 85 79 84 71 56 64 51 48 54 49 42 41 39 43 54 48 65 45 38 35 70 55 67 79 84 82 81
70 70 57 51 68 62 74 79 87 94 65 81 83 80 82 96 96 96 96 96 98 87 82 69 77 51 42 43 44 38 33 76 74 81 55 42 40 34 41 52 50 61 74 74 71
71 70 57 47 61 80 70 84 90 82 97 74 71 68 88 83 93 78 86 94 86 90 88 93 89 61 48 51 48 42 44 54 63 65 47 39 40 27 29 52 50 49 57 69 70
61 66 54 51 60 68 81 91 97 94 77 83 70 85 84 80 91 86 95 97 99 99 100 92 86 68 45 42 41 44 42 33 50 48 39 39 33 23 25 38 52 57 68 75 72
78 62 47 57 72 68 87 86 80 62 67 73 97 87 98 92 90 90 93 97 98 99 97 93 94 74 48 40 41 39 32 49 56 54 41 47 32 37 62 68 42 50 69 80 84
66 41 44 60 65 79 96 82 68 55 61 72 86 90 93 95 98 99 97 96 100 97 88 90 82 84 47 58 53 43 47 48 48 63 69 50 39 68 71 70 70 68 66 69 72
70 63 48 68 85 98 95 73 59 64 56 66 70 79 89 86 89 94 97 95 96 100 100 92 88 81 62 63 56 53 47 48 53 49 69 68 66 65 66 64 62 64 60 60 60
96 68 58 69 92 99 78 71 72 70 62 62 54 60 72 80 87 86 82 61 70 93 100 96 94 91 80 55 55 61 48 42 42 51 50 72 70 60 61 65 64 65 63 61 59
93 85 69 80 91 93 89 86 76 68 65 58 49 59 80 80 78 85 82 68 63 69 77 94 93 87 77 78 56 70 59 46 41 56 49 58 82 68 63 69 66 65 61 59 60
96 99 90 91 93 96 90 97 96 93 75 61 55 55 90 87 75 80 73 75 69 73 83 92 97 92 93 94 86 60 57 50 47 44 47 53 71 71 64 66 65 59 58 57 57
95 95 96 99 100 90 86 95 98 94 88 84 87 69 84 85 85 90 77 83 90 80 92 88 98 92 92 95 74 69 66 56 53 56 62 67 77 62 62 59 62 60 57 58 57
97 92 89 88 95 85 97 97 90 84 67 68 80 76 80 58 53 55 64 69 75 91 97 97 98 98 96 96 86 80 81 76 70 70 71 70 74 64 63 61 66 58 52 52 52
Wind_Speed
19 18 20 20 21 22 22 18 18 18 17 13 12 13 12 7 5 3 7 10 11 12 6 8 9 8 7 6 5 5 4 6 10 11 9 5 6 4 3 15 1 2 5 19 18
20 19 20 21 21 21 22 21 19 20 20 14 7 7 8 2 4 6 3 10 13 7 3 4 18 15 9 8 5 6 5 9 5 7 5 5 7 12 9 5 5 10 16 16 18
18 19 20 20 20 22 20 20 20 20 21 18 5 4 6 1 3 4 6 4 2 6 5 2 9 12 16 6 8 7 7 5 6 5 6 6 4 3 21 4 17 25 23 18 20
19 20 19 21 22 21 22 21 21 21 16 13 4 6 3 3 2 3 6 5 1 4 5 3 11 17 14 17 13 10 4 6 4 6 5 5 8 4 20 11 17 30 28 20 21
20 20 20 21 22 22 21 22 20 19 15 11 5 13 5 4 4 5 5 1 5 5 10 10 14 19 22 16 14 5 9 3 1 3 4 8 7 7 3 13 18 22 23 20 17
21 20 20 21 22 23 22 21 19 19 13 9 5 9 3 2 5 6 4 3 8 8 9 4 15 18 23 17 18 7 11 4 5 6 2 6 5 5 2 18 20 23 21 18 16
21 21 21 21 22 23 22 21 20 16 10 6 3 6 3 5 5 6 5 3 3 6 11 6 11 14 12 14 8 7 13 4 1 3 3 7 5 7 16 16 21 20 18 17 15
22 22 22 21 22 22 22 22 19 12 8 6 2 1 4 6 6 6 5 3 5 6 2 3 7 13 8 10 5 7 7 8 4 4 2 2 3 4 17 22 18 17 17 16 15
22 22 21 21 20 21 21 23 11 8 8 6 2 2 2 11 5 6 5 2 6 5 3 5 4 6 6 21 6 1 14 7 6 7 3 3 5 6 13 18 20 15 17 15 15
22 22 21 19 18 18 21 12 8 7 6 2 3 2 4 7 5 4 4 2 2 9 8 9 5 6 10 18 17 11 10 4 8 6 4 4 5 13 13 18 22 16 16 15 15
21 21 20 19 16 14 10 5 7 8 7 1 4 4 8 9 5 3 2 1 2 9 8 11 14 12 23 21 19 11 7 11 4 5 7 7 9 16 11 10 17 15 15 17 18
20 19 19 18 12 11 6 6 2 3 4 6 8 6 12 2 5 5 1 2 2 17 17 12 13 13 18 11 16 12 13 5 5 4 7 3 5 9 14 17 22 20 16 17 18
19 19 20 21 5 6 9 4 5 0 0 7 6 3 16 5 3 9 5 1 5 6 19 15 12 9 18 11 16 6 15 7 10 4 6 8 3 6 5 5 8 10 10 11 17
17 17 20 21 6 2 3 6 4 2 5 15 12 6 13 11 1 4 4 3 4 18 19 10 2 18 18 7 16 9 8 10 13 8 6 2 5 3 7 7 13 12 15 16 17
17 16 19 6 2 4 3 4 1 2 8 21 10 8 18 6 8 18 2 6 13 13 14 2 14 12 11 4 7 7 9 9 7 6 6 1 4 6 8 7 11 15 16 16 18
14 14 18 4 3 2 3 1 4 10 5 11 10 16 17 9 11 11 6 6 2 12 14 8 4 6 3 4 5 7 10 9 6 4 1 6 6 5 10 18 6 12 15 16 17
13 13 8 2 8 6 1 4 10 9 8 12 11 15 14 12 14 11 17 19 8 11 8 8 7 4 5 6 6 9 16 4 3 2 5 2 2 8 6 11 14 16 15 15 16
13 6 8 3 10 1 4 9 15 5 4 5 7 13 10 14 13 20 11 13 18 10 10 4 2 2 2 4 7 6 7 9 12 7 4 3 6 8 8 6 8 14 18 15 16
5 4 5 14 14 3 7 15 6 5 6 7 6 7 10 8 6 8 11 7 6 10 3 5 1 4 2 4 3 2 2 6 10 1 5 3 5 5 4 6 6 6 6 10 13
3 3 10 19 10 7 9 11 5 7 6 2 6 4 7 10 9 6 11 7 10 5 5 1 5 1 2 3 1 4 3 4 4 7 5 2 4 3 8 12 13 5 6 6 5
5 6 12 16 6 9 8 5 4 9 10 7 3 4 2 3 2 5 5 1 7 8 7 5 4 4 6 5 5 0 1 4 5 5 6 5 6 1 5 10 8 11 12 11 10
4 7 8 7 8 4 5 5 8 9 12 7 5 5 3 5 8 5 3 4 9 6 4 4 2 4 11 3 4 1 4 4 5 4 2 3 4 3 5 9 9 11 12 12 12
4 1 6 6 7 5 4 5 5 11 9 8 9 7 4 6 5 4 3 5 7 10 5 6 2 5 5 8 2 4 4 4 4 3 4 6 4 4 7 9 11 11 12 12 13
5 6 7 7 3 5 2 5 4 6 3 5 6 6 5 6 4 4 6 4 8 9 7 5 2 3 7 2 3 4 3 3 4 3 3 5 6 3 6 7 9 10 11 11 12
5 1 4 5 6 4 4 1 4 6 6 9 5 10 5 7 6 6 7 7 3 12 6 4 3 2 1 5 3 4 5 6 6 4 4 6 9 5 4 5 6 8 9 11 13
5 4 4 2 1 5 6 2 2 5 3 6 4 6 5 5 3 5 9 6 4 9 7 7 2 3 3 6 3 3 3 4 3 3 6 8 2 2 3 5 7 9 10 11 11
3 2 5 6 3 5 3 3 3 2 3 1 1 3 4 2 4 9 7 6 5 5 5 4 3 2 4 3 1 2 2 3 3 4 2 6 3 3 2 4 4 6 8 9 10
Wind_Direction
336 342 336 326 340 338 334 321 314 312 311 315 311 310 302 256 241 181 223 233 215 251 356 306 193 146 151 185 161 157 115 193 187 158 194 172 125 62 34 132 2 129 126 147 141
340 342 334 337 337 334 330 324 334 328 318 315 320 300 341 218 183 187 219 233 235 265 76 269 195 160 183 175 188 159 149 196 200 173 153 165 137 144 120 144 43 91 105 130 129
337 334 334 332 332 334 330 328 323 318 313 306 345 24 348 159 164 200 225 12 235 113 134 97 260 172 183 178 192 174 168 193 229 167 154 133 129 140 135 199 164 147 142 149 136
335 335 333 337 331 332 327 321 324 322 326 315 99 60 328 42 198 127 63 22 320 130 149 128 230 176 172 194 192 134 198 166 341 184 160 156 124 134 163 173 162 151 150 151 146
335 335 334 334 330 329 329 321 323 321 325 317 181 163 199 196 238 173 136 287 176 180 189 198 231 175 184 185 183 139 194 221 48 315 162 129 149 164 62 116 136 143 145 148 142
334 333 334 332 331 329 327 320 322 322 323 331 228 173 238 271 103 141 206 224 169 181 151 197 224 191 186 173 179 166 168 102 129 278 181 127 128 90 19 126 135 151 147 149 146
335 332 331 330 329 327 326 323 320 325 330 360 151 178 234 258 174 181 193 226 203 203 175 214 266 216 158 143 166 132 162 75 259 235 193 123 104 157 150 144 146 155 151 148 146
334 331 329 329 328 328 325 323 320 318 314 333 224 201 269 149 134 186 215 202 255 235 176 195 261 214 141 135 98 108 143 161 226 192 321 93 170 129 151 144 149 154 158 158 159
333 330 328 329 329 329 328 327 321 324 292 271 298 203 351 134 207 167 201 215 255 239 101 346 251 189 123 146 119 139 170 165 145 198 123 85 130 164 160 147 154 158 162 164 167
334 330 329 328 331 333 332 333 358 25 358 231 273 31 357 304 305 149 171 215 234 152 121 204 186 151 143 157 167 172 149 133 138 193 52 96 121 160 168 156 161 164 166 168 177
338 331 331 334 337 350 349 18 16 355 33 352 308 164 274 278 322 337 358 287 269 160 160 158 160 163 155 170 169 136 101 153 100 185 111 134 130 168 165 152 157 164 173 177 185
341 333 337 341 350 49 10 67 78 179 333 309 279 265 321 258 283 335 137 181 130 147 151 127 164 162 151 126 137 131 125 108 62 148 94 138 118 166 168 176 171 174 180 179 178
343 336 341 345 88 62 79 22 315 120 3 330 302 291 323 310 288 333 30 94 81 138 144 133 150 158 144 119 136 138 153 152 142 112 52 107 1 143 196 125 176 184 170 179 183
340 338 347 340 51 33 60 324 306 120 71 351 345 11 330 320 263 10 26 155 163 164 148 94 90 142 135 101 148 142 164 121 134 124 176 114 232 243 190 176 177 173 177 187 188
340 341 345 23 266 78 264 309 233 66 54 320 323 302 323 349 327 8 37 22 86 126 129 168 122 125 102 129 128 183 143 131 130 99 105 198 93 254 166 207 189 184 191 193 190
344 343 355 5 9 105 310 54 46 42 13 325 328 336 343 3 5 4 65 37 209 74 80 56 120 78 119 91 66 124 94 58 63 86 108 221 137 262 192 196 169 193 197 192 190
342 341 357 358 325 326 59 59 54 53 328 323 332 333 343 351 22 26 48 46 46 99 102 30 18 25 87 74 30 116 138 103 55 25 195 290 144 233 212 193 181 187 197 193 192
340 359 330 110 329 45 72 52 64 350 327 313 320 325 17 358 13 26 40 28 13 62 93 108 87 40 298 137 161 128 146 155 165 172 197 78 218 244 216 208 193 186 193 184 187
18 348 21 344 342 33 78 53 47 347 310 315 326 24 343 351 31 31 45 32 42 13 64 111 282 331 27 41 99 221 110 163 100 3 92 212 273 324 22 201 225 200 150 193 190
74 31 19 340 340 45 51 90 82 20 315 29 64 36 12 335 25 39 24 347 348 23 327 4 96 293 259 49 28 110 190 97 28 140 178 281 252 217 348 337 320 237 220 192 157
56 54 333 342 35 43 69 54 28 2 17 43 13 42 332 355 82 48 359 156 360 323 328 358 90 260 119 202 146 207 184 63 115 126 152 157 246 45 333 344 23 18 32 33 45
64 51 326 354 59 31 42 10 5 340 3 17 37 16 25 345 18 66 61 2 358 322 24 3 83 105 210 64 8 288 184 129 116 207 164 144 247 49 51 23 25 26 27 30 35
71 335 335 31 72 5 27 41 49 9 1 13 7 0 351 4 71 64 46 334 10 19 20 334 344 98 61 319 301 229 205 159 139 84 191 135 237 89 52 37 23 34 28 23 27
73 31 351 42 35 92 61 14 19 356 33 10 14 356 349 23 22 38 358 332 335 2 347 302 15 52 183 234 107 188 161 144 139 118 162 204 155 154 40 38 15 20 28 26 28
32 259 190 343 2 51 70 4 355 11 4 5 30 22 339 9 352 20 1 343 9 354 357 38 54 351 353 296 279 225 166 182 194 182 160 196 153 143 85 56 36 22 26 26 22
93 91 2 151 331 50 4 332 354 315 57 340 50 329 41 82 141 310 0 7 354 325 14 345 93 355 305 343 308 129 343 177 158 73 76 102 93 75 72 66 54 31 25 21 15
346 45 104 315 13 75 261 257 273 350 300 211 299 71 17 116 225 233 225 258 260 317 327 38 27 5 232 334 15 345 297 336 80 50 30 170 119 132 101 76 54 35 26 16 1